Flag for Chad Weather past 2 weeks in Ndjamena, Chad

Now
95 °F

Sunny.


Feels Like: 90 °F
Forecast: 75 / 105 °F
Wind: 18 mph from Northeast

Location: Ndjamena

Current Time: Apr 27, 2015 at 10:35:59 AM

Latest Report: Apr 27, 2015 at 10:00 AM


Visibility: 10 mi

Pressure: 29.89 "Hg

Humidity: 11%

Dew point: 34 °F

Location of NdjamenaLocation

Historic Weather in Ndjamena — Graph

°F

Ndjamena temperature yesterday

Maximum temperature yesterday: 104 °F (at 1:00 PM)
Minimum temperature yesterday: 73 °F (at 5:00 AM)
Average temperature yesterday: 90 °F

Past Weeks' High & Low Weather Summary

 TemperatureHumidityPressure
High111 °F (Apr 23, 3:00 PM)30% (Apr 24, 5:00 AM)30.01 "Hg (Apr 24, 5:00 AM)
Low66 °F (Apr 15, 6:00 AM)9% (Apr 21, 2:00 PM)29.68 "Hg (Apr 23, 3:00 PM)
Average89 °F17%29.84 "Hg
* Reported Apr 12 9:00 AM — Apr 27 9:00 AM, Ndjamena, Weather by CustomWeather, © 2015

Note: Actual official high and low records may vary slightly from our data, if they occured in-between our weather recording intervals... More about our weather records

Advertising

Ndjamena weather history for previous 24 hours

 ConditionsComfort  
Time TempWeatherWind HumidityBarometerVisibility
9:00 AM
Mon, Apr 27
93 °FSunny.21 mph12%29.89 "Hg10 mi
8:00 AM88 °FClear.14 mph16%29.89 "Hg4 mi
7:00 AM81 °FClear.13 mph18%29.86 "Hg4 mi
6:00 AM75 °FClear.No wind21%29.83 "Hg4 mi
5:00 AM75 °FClear.No wind22%29.83 "Hg10 mi
4:00 AM73 °FClear.No wind22%29.83 "Hg10 mi
3:00 AM77 °FClear.No wind22%29.83 "Hg10 mi
2:00 AM79 °FClear.No wind21%29.83 "Hg10 mi
1:00 AM79 °FClear.No wind21%29.86 "Hg10 mi
12:00 AM79 °FClear.No wind21%29.86 "Hg10 mi
11:00 PM
Sun, Apr 26
81 °FClear.No wind18%29.89 "Hg10 mi
10:00 PM84 °FClear.8 mph18%29.89 "Hg10 mi
9:00 PM88 °FClear.9 mph17%29.86 "Hg10 mi
8:00 PM91 °FClear.9 mph15%29.83 "Hg10 mi
7:00 PM93 °FClear.9 mph13%29.80 "Hg10 mi
6:00 PM99 °FSunny.13 mph11%29.80 "Hg10 mi
5:00 PM102 °FSunny.14 mph11%29.77 "Hg10 mi
3:00 PM104 °FPassing clouds.14 mph10%29.77 "HgN/A
2:00 PM102 °FSunny.18 mph10%29.80 "Hg10 mi
1:00 PM104 °FSunny.17 mph11%29.83 "Hg10 mi
12:00 PM102 °FSunny.18 mph11%29.86 "Hg10 mi
11:00 AM100 °FClear.17 mph12%29.89 "Hg5 mi
10:00 AM97 °FClear.18 mph13%29.89 "Hg5 mi
Weather by CustomWeather, © 2015

See weather overviewHow to use our weather pages